[[{"header":{"parameterUnit":"m.s-1","parameterCategory":1,"la1":30.2991,"la2":30.254,"lo1":-89.0895,"lo2":-89.0444,"dy":0.0017,"dx":0.0017,"nx":28,"ny":28,"refTime":"2023-09-30T09:00:00:Z","depth":0,"parameterNumber":2,"parameterNumberName":"U-component_of_WINDS"},"data":[0,0,0,0,0,0,0,0,0,0,0,0,0,0,0,0,0,0,0,0,0,0,0,0,0,0,0,0,0,0,0,0,0,0,0,0,0,0,0,0,0,0,0,0,0,0,0,0,0,0,0,0,0,0,0,0,0,0,-4.9373,-4.9375,0,-4.9538,-4.954,-4.9542,-4.9404,-4.9399,-4.9393,-4.9387,-4.9564,-4.9574,-4.9583,0,0,0,0,0,0,0,0,0,0,0,0,0,-4.8946,-4.8955,-4.9373,-4.9375,-4.9377,-4.9537,-4.954,-4.9542,-4.9405,-4.9398,-4.9391,-4.9385,-4.956,-4.9572,-4.9584,0,0,0,0,0,0,0,0,0,0,0,0,0,-4.9124,-4.8957,-4.9372,-4.9328,-4.9325,-4.9537,-4.954,-4.9543,-4.9407,-4.9398,-4.9389,-4.9381,-4.9556,-4.9571,-4.9586,-4.9852,0,0,-4.9632,-4.9639,0,0,0,0,0,0,0,0,-4.9114,-4.9139,-4.9332,-4.9331,-4.9329,-4.9441,-4.9454,-4.9647,-4.9409,-4.9376,-4.9387,-4.9377,-4.9531,-4.9547,-4.9597,-4.9861,-4.9868,-4.9634,-4.9643,-4.9649,-4.9653,0,0,0,0,0,0,0,-4.9102,-4.9132,-4.9438,-4.9335,-4.9333,-4.9302,-4.9317,-4.949,-4.95,-4.9378,-4.9369,-4.939,-4.9528,-4.9583,-4.9601,-4.9871,-4.9633,-4.9647,-4.9656,-4.9662,-5.0362,-5.0371,0,0,0,0,0,0,-4.9093,-4.9122,-4.9433,-4.9443,-4.9198,-4.9317,-4.9334,-4.9414,-4.9498,-4.9502,-4.9397,-4.9383,-4.9562,-4.9583,-4.9606,-4.9925,-4.9649,-4.9663,-4.9672,-5.0353,-5.0365,-5.0375,0,0,0,0,0,0,-4.9084,-4.9122,-4.9426,-4.928,-4.9316,-4.9333,-4.9424,-4.9422,-4.9477,-4.9512,-4.9514,-4.9451,-4.9556,-4.9585,-4.9792,-4.9929,-4.967,-4.9684,-5.0342,-5.0357,-5.037,-5.0563,0,0,0,0,0,0,-4.9072,-4.9119,-4.9219,-4.9283,-4.9325,-4.9608,-4.9433,-4.9432,-4.9502,-4.9485,-4.9563,-4.9568,-4.9551,-4.977,-4.9807,-4.9945,-4.9696,-5.033,-5.0348,-5.0365,-5.0545,-5.0582,-5.0614,0,0,0,0,0,-4.9058,-4.9269,-4.9225,-4.9263,-4.945,-4.9616,-4.964,-4.9614,-4.9514,-4.9616,-4.9638,-4.9565,-4.9907,-4.9793,-4.9833,-4.9977,-5.0321,-5.0343,-5.0364,-5.0529,-5.0575,-5.0614,0,0,0,0,0,0,-4.9223,-4.9276,-4.9229,-4.9466,-4.9537,-4.9592,-4.972,-4.9664,-4.9767,-4.9747,-4.9713,-4.9732,-4.995,-4.9984,-4.9855,-5.024,-5.0098,-5.0129,-5.021,-5.0254,-5.0288,-5.0277,-4.9708,0,0,0,0,0,-4.9286,-4.9415,-4.9455,-4.9661,-4.9699,-4.9704,-4.9775,-4.9749,-4.9823,-4.9853,-4.989,-4.9967,-5.0091,-5.0174,-5.0291,-5.0548,-5.0564,-5.0668,-5.0703,-5.0731,-5.0759,-5.0899,-5.0946,-5.0445,-5.0445,-5.0445,0,0,-4.942,-4.9465,-4.9549,-4.9695,-4.9747,-4.9884,-4.973,-4.988,-4.9982,-4.9876,-5.0074,-5.0104,-5.0187,-5.0421,-5.0526,-5.0456,-5.09,-5.0758,-5.0781,-5.0793,-5.0926,-5.0973,-5.1016,-5.046,-5.0457,-5.0455,0,0,-4.9733,-4.9779,-4.9956,-5.0011,-5.0091,-5.0092,-5.0135,-5.0199,-5.0215,-5.0412,-5.0336,-5.0457,-5.0672,-5.0734,-5.0794,-5.1131,-5.1069,-5.117,-5.1354,-5.1491,-5.1531,-5.1565,-5.1687,-5.1731,-5.1197,-5.1198,-5.1198,0,-4.989,-5.0089,-5.0054,-5.021,-5.0278,-5.0186,-5.0367,-5.0422,-5.0538,-5.0588,-5.0507,-5.0775,-5.0825,-5.1072,-5.1155,-5.1206,-5.1255,-5.1162,-5.1527,-5.1562,-5.1594,-5.171,-5.1756,-5.121,-5.1208,-5.1207,-5.1206,0,-5.0279,-5.0419,-5.0552,-5.0663,-5.0746,-5.0914,-5.0906,-5.0995,-5.0962,-5.0973,-5.1176,-5.1231,-5.1358,-5.1414,-5.1385,-5.1659,-5.1614,-5.1531,-5.1388,-5.1654,-5.1763,-5.1807,-5.1227,-5.1223,-5.1219,-5.1216,0,0,-5.0702,-5.0791,-5.0841,-5.089,-5.0972,-5.1081,-5.1245,-5.1366,-5.1443,-5.1526,-5.1665,-5.1848,-5.1772,-5.1841,-5.1817,-5.1937,-5.2203,-5.184,-5.1841,-5.1907,-5.2511,-5.2574,-5.2626,-5.2161,-5.2169,-5.2176,-5.2505,0,-5.1019,-5.1302,-5.1276,-5.1545,-5.1675,-5.159,-5.1733,-5.18,-5.1815,-5.1929,-5.1946,-5.2078,-5.1966,-5.2007,-5.2122,-5.2146,-5.2324,-5.2122,-5.2293,-5.2299,-5.2276,-5.2682,-5.2749,-5.3057,-5.2547,-5.2554,-5.2559,0,-5.1428,-5.1522,-5.1805,-5.1867,-5.192,-5.2049,-5.2159,-5.2268,-5.2343,-5.2346,-5.2422,-5.2378,-5.2546,-5.2398,-5.263,-5.2493,-5.2561,-5.2584,-5.2595,-5.2612,-5.2446,-5.2712,-5.3154,-5.3201,-5.2625,-5.262,-5.2615,0,-5.171,-5.1908,-5.2102,-5.2148,-5.2225,-5.2318,-5.2355,-5.242,-5.2496,-5.2592,-5.2641,-5.2757,-5.2822,-5.2914,-5.2903,-5.2796,-5.314,-5.2991,-5.3149,-5.315,-5.3227,-5.3223,-5.3689,-5.3269,-5.3268,-5.3267,-5.3266,0,-5.2068,-5.2245,-5.223,-5.235,-5.2546,-5.2515,-5.271,-5.2736,-5.2796,-5.2922,-5.2855,-5.2975,-5.2953,-5.3073,-5.3066,-5.3261,-5.329,-5.3299,-5.3295,-5.3306,-5.3305,-5.3351,-5.333,-5.3279,-5.3277,-5.3274,-5.3272,0,-5.2417,-5.2414,-5.2621,-5.2676,-5.2694,-5.2836,-5.2885,-5.3,-5.3008,-5.3168,-5.3204,-5.3219,-5.3357,-5.3355,-5.3513,-5.3508,-5.3748,-5.3719,-5.3722,-5.3717,-5.3876,-5.3862,-5.4389,-5.4457,-5.3992,-5.3996,-5.4,0,-5.2646,-5.278,-5.2849,-5.2927,-5.2969,-5.3096,-5.3172,-5.3147,-5.3229,-5.3324,-5.3428,-5.356,-5.3663,-5.3889,-5.3916,-5.4037,-5.4012,-5.4188,-5.403,-5.4036,-5.4017,-5.4009,-5.4023,-5.422,-5.4225,-5.4229,-5.4233,0,-5.3055,-5.3046,-5.3156,-5.3268,-5.3359,-5.3446,-5.3525,-5.3594,-5.3577,-5.3674,-5.3813,-5.3893,-5.4054,-5.4186,-5.4303,-5.4343,-5.4288,-5.4282,-5.4325,-5.4338,-5.4335,-5.4341,-5.3808,-5.4271,-5.4267,-5.4264,-5.4262,-5.426,-5.3352,-5.3467,-5.3533,-5.3659,-5.3715,-5.3791,-5.3902,-5.3924,-5.4038,-5.4165,-5.4144,-5.4301,-5.4374,-5.4524,-5.4575,-5.4699,-5.4637,-5.4699,-5.4716,-5.4732,-5.475,-5.4314,-5.472,-5.4719,-5.4718,-5.4717,-5.4716,0,-5.3758,-5.3796,-5.3912,-5.4024,-5.4124,-5.4058,-5.4143,-5.4232,-5.4369,-5.4441,-5.4544,-5.4705,-5.4833,-5.487,-5.4994,-5.5086,-5.5064,-5.512,-5.5114,-5.5125,-5.4797,-5.4748,-5.5136,-5.5136,-5.5136,-5.5136,-5.5136,-5.5136,-5.3981,-5.4172,-5.4172,-5.4392,-5.4429,-5.458,-5.4634,-5.4705,-5.4761,-5.4943,-5.5049,-5.507,-5.5129,-5.5257,-5.5373,-5.538,-5.543,-5.5498,-5.5495,-5.5189,-5.5147,-5.5107,-5.5061,-5.5508,-5.5509,-5.5812,-5.5815,-5.5817]},{"header":{"parameterUnit":"m.s-1","parameterCategory":1,"la1":30.2991,"la2":30.254,"lo1":-89.0895,"lo2":-89.0444,"dy":0.0017,"dx":0.0017,"nx":28,"ny":28,"refTime":"2023-09-30T09:00:00:Z","depth":0,"parameterNumber":3,"parameterNumberName":"V-component_of_WINDS"},"data":[0,0,0,0,0,0,0,0,0,0,0,0,0,0,0,0,0,0,0,0,0,0,0,0,0,0,0,0,0,0,0,0,0,0,0,0,0,0,0,0,0,0,0,0,0,0,0,0,0,0,0,0,0,0,0,0,0,0,-1.7137,-1.7137,0,-1.7121,-1.7121,-1.7121,-1.7097,-1.7097,-1.7097,-1.7096,-1.708,-1.708,-1.7079,0,0,0,0,0,0,0,0,0,0,0,0,0,-1.7147,-1.7147,-1.7137,-1.7137,-1.7137,-1.7121,-1.7121,-1.7121,-1.7097,-1.7097,-1.7096,-1.7096,-1.708,-1.708,-1.7079,0,0,0,0,0,0,0,0,0,0,0,0,0,-1.7138,-1.7147,-1.7137,-1.7123,-1.7122,-1.7121,-1.7121,-1.7121,-1.7098,-1.7097,-1.7096,-1.7096,-1.708,-1.708,-1.7079,-1.7091,0,0,-1.7079,-1.7079,0,0,0,0,0,0,0,0,-1.7138,-1.7138,-1.7126,-1.7124,-1.7123,-1.7111,-1.7118,-1.7111,-1.7098,-1.7107,-1.7096,-1.7095,-1.709,-1.7089,-1.7088,-1.709,-1.709,-1.7079,-1.7079,-1.7079,-1.7079,0,0,0,0,0,0,0,-1.7139,-1.7138,-1.7131,-1.7125,-1.7124,-1.7118,-1.7116,-1.7117,-1.7102,-1.7106,-1.7104,-1.7103,-1.709,-1.7088,-1.7087,-1.7089,-1.7079,-1.7079,-1.7079,-1.7079,-1.7099,-1.71,0,0,0,0,0,0,-1.7142,-1.7139,-1.7131,-1.713,-1.7129,-1.7118,-1.7116,-1.7115,-1.7102,-1.71,-1.7103,-1.7102,-1.7088,-1.7087,-1.7087,-1.7098,-1.7079,-1.7079,-1.7079,-1.7099,-1.7099,-1.71,0,0,0,0,0,0,-1.7142,-1.7141,-1.7132,-1.7134,-1.7132,-1.7118,-1.7118,-1.7115,-1.7113,-1.71,-1.7097,-1.7104,-1.7088,-1.7087,-1.709,-1.7097,-1.7079,-1.7079,-1.7098,-1.7099,-1.71,-1.7122,0,0,0,0,0,0,-1.7143,-1.7142,-1.7146,-1.7134,-1.7132,-1.7136,-1.7118,-1.7115,-1.7113,-1.7111,-1.71,-1.7098,-1.7087,-1.709,-1.709,-1.7097,-1.7079,-1.7097,-1.7098,-1.7099,-1.7121,-1.7124,-1.7126,0,0,0,0,0,-1.7143,-1.7154,-1.7147,-1.7146,-1.7138,-1.7137,-1.7135,-1.7123,-1.7114,-1.7118,-1.7109,-1.7098,-1.7097,-1.7091,-1.709,-1.7097,-1.7097,-1.7098,-1.7099,-1.7119,-1.7123,-1.7126,0,0,0,0,0,0,-1.7167,-1.7152,-1.7144,-1.7151,-1.7145,-1.7133,-1.7138,-1.7128,-1.7124,-1.7122,-1.7107,-1.7104,-1.7109,-1.7104,-1.7097,-1.7107,-1.7095,-1.7096,-1.711,-1.7114,-1.7116,-1.7117,-1.7079,0,0,0,0,0,-1.7173,-1.7173,-1.716,-1.7168,-1.7165,-1.7152,-1.7151,-1.7142,-1.7135,-1.7132,-1.7124,-1.7118,-1.7115,-1.7114,-1.7112,-1.712,-1.7116,-1.7124,-1.7127,-1.713,-1.7131,-1.7133,-1.7136,-1.7104,-1.7104,-1.7104,0,0,-1.7186,-1.7177,-1.7179,-1.7172,-1.7167,-1.7167,-1.715,-1.7151,-1.7151,-1.7133,-1.7134,-1.7128,-1.712,-1.7125,-1.7127,-1.7121,-1.7138,-1.7131,-1.7133,-1.7133,-1.7134,-1.7137,-1.714,-1.7105,-1.7105,-1.7105,0,0,-1.7208,-1.7203,-1.7208,-1.7202,-1.7194,-1.7185,-1.7186,-1.7175,-1.7169,-1.7171,-1.7157,-1.7156,-1.7154,-1.7148,-1.7145,-1.7164,-1.7153,-1.7164,-1.7178,-1.7181,-1.7183,-1.7185,-1.7191,-1.7193,-1.7165,-1.7165,-1.7165,0,-1.7225,-1.7225,-1.7211,-1.7213,-1.721,-1.7193,-1.7198,-1.7193,-1.7184,-1.7182,-1.7176,-1.717,-1.7164,-1.7167,-1.7172,-1.717,-1.717,-1.7165,-1.7184,-1.7186,-1.7188,-1.7193,-1.7195,-1.7167,-1.7166,-1.7166,-1.7166,0,-1.7245,-1.7245,-1.725,-1.7241,-1.7239,-1.7242,-1.7229,-1.7228,-1.7219,-1.721,-1.7212,-1.7203,-1.7198,-1.7198,-1.719,-1.72,-1.7196,-1.7187,-1.7174,-1.7192,-1.7196,-1.7198,-1.7168,-1.7168,-1.7167,-1.7167,0,0,-1.7282,-1.7265,-1.7267,-1.7263,-1.7252,-1.7251,-1.7253,-1.7248,-1.7247,-1.7241,-1.7242,-1.7239,-1.723,-1.7227,-1.7217,-1.722,-1.7234,-1.721,-1.7209,-1.7213,-1.7242,-1.7248,-1.7251,-1.7227,-1.7227,-1.7227,-1.7243,0,-1.7301,-1.7304,-1.7291,-1.7297,-1.7296,-1.7279,-1.7281,-1.7274,-1.7266,-1.7264,-1.7255,-1.7253,-1.7242,-1.7239,-1.7241,-1.7232,-1.7239,-1.7231,-1.7226,-1.7226,-1.7227,-1.7254,-1.726,-1.7275,-1.7244,-1.7245,-1.7245,0,-1.7324,-1.7319,-1.7324,-1.7312,-1.7311,-1.7313,-1.7306,-1.7305,-1.7296,-1.729,-1.7286,-1.7275,-1.7275,-1.7264,-1.7263,-1.7257,-1.7255,-1.725,-1.725,-1.7248,-1.7236,-1.7251,-1.728,-1.7281,-1.7248,-1.7248,-1.7247,0,-1.7349,-1.7344,-1.7346,-1.7342,-1.7329,-1.733,-1.7324,-1.7315,-1.7312,-1.7306,-1.7304,-1.7299,-1.7296,-1.7291,-1.7279,-1.7272,-1.7279,-1.7267,-1.7273,-1.7274,-1.7275,-1.7275,-1.7302,-1.7275,-1.7275,-1.7275,-1.7275,0,-1.7371,-1.7375,-1.7356,-1.7358,-1.736,-1.7346,-1.7349,-1.7342,-1.7334,-1.7333,-1.7319,-1.7318,-1.7302,-1.7299,-1.729,-1.729,-1.7289,-1.7283,-1.7281,-1.7284,-1.7285,-1.7281,-1.728,-1.7276,-1.7276,-1.7276,-1.7276,0,-1.7399,-1.7387,-1.7388,-1.7374,-1.7371,-1.7374,-1.7362,-1.7362,-1.7353,-1.7352,-1.7351,-1.7337,-1.7332,-1.732,-1.7313,-1.7306,-1.7309,-1.7304,-1.7311,-1.7309,-1.7316,-1.7315,-1.7341,-1.7343,-1.7316,-1.7317,-1.7317,0,-1.7414,-1.7416,-1.7402,-1.74,-1.7395,-1.7393,-1.7389,-1.7375,-1.7372,-1.7362,-1.7363,-1.7358,-1.7353,-1.7347,-1.7336,-1.733,-1.7324,-1.7334,-1.7323,-1.7326,-1.7323,-1.7323,-1.7322,-1.7336,-1.7336,-1.7337,-1.7337,0,-1.744,-1.7434,-1.743,-1.7423,-1.742,-1.7414,-1.7408,-1.7407,-1.7391,-1.7389,-1.7384,-1.738,-1.7372,-1.7367,-1.7359,-1.7353,-1.7342,-1.734,-1.7341,-1.7344,-1.7348,-1.7344,-1.7316,-1.734,-1.7339,-1.7339,-1.7339,-1.7339,-1.746,-1.7461,-1.7451,-1.7447,-1.7441,-1.7435,-1.7434,-1.7424,-1.742,-1.7413,-1.7405,-1.7401,-1.7391,-1.738,-1.7374,-1.737,-1.7364,-1.7366,-1.7366,-1.7367,-1.7368,-1.7349,-1.7369,-1.7369,-1.7369,-1.7369,-1.7368,0,-1.7485,-1.7478,-1.7474,-1.7465,-1.7461,-1.7452,-1.7444,-1.7441,-1.7438,-1.743,-1.7425,-1.7419,-1.7414,-1.7402,-1.7395,-1.7394,-1.7389,-1.7393,-1.7392,-1.7391,-1.7374,-1.7373,-1.7397,-1.7397,-1.7397,-1.7397,-1.7397,-1.7397,-1.7497,-1.7497,-1.7489,-1.7486,-1.7479,-1.7474,-1.7471,-1.7465,-1.7458,-1.7452,-1.7447,-1.744,-1.743,-1.7422,-1.7416,-1.7413,-1.741,-1.7416,-1.741,-1.7395,-1.7392,-1.7389,-1.7388,-1.7415,-1.7415,-1.7427,-1.7427,-1.7428]}]]